Location: Newark
(35.8967°N, 14.4625°E)
Time: 19:53:51
(UTC+00:00)

Envisat - Visible Passes

Search period start: 21 March 2019 00:00
Search period end: 31 March 2019 00:00
Orbit: 764 x 766 km, 98.2° (Epoch: 21 March)

Date Brightness Start Highest point End Pass type
(mag) Time Alt. Az. Time Alt. Az. Time Alt. Az.
21 Mar 3.0 17:34:09 10° SSE 17:39:12 75° ENE 17:44:17 10° N visible
21 Mar 6.3 19:18:07 10° W 19:18:41 10° W 19:19:16 10° W visible
22 Mar 5.3 18:37:27 10° SSW 18:41:37 25° W 18:45:47 10° NW visible
23 Mar 3.6 17:59:43 10° S 18:04:43 60° W 18:09:45 10° NNW visible
24 Mar 6.0 19:04:50 10° WSW 19:07:21 14° W 19:09:53 10° WNW visible
25 Mar 4.8 18:25:49 10° SSW 18:30:20 32° W 18:34:53 10° NNW visible
26 Mar 3.2 17:48:26 10° S 17:53:29 78° WSW 17:58:35 10° NNW visible
27 Mar 5.8 18:52:39 10° SW 18:56:02 18° W 18:59:27 10° NW visible
28 Mar 4.4 18:14:18 10° S 18:19:04 42° W 18:23:53 10° NNW visible
30 Mar 5.4 18:40:46 10° SSW 18:44:44 23° W 18:48:44 10° NW visible
